Location: Les Chemineaux
(47.3024°N, 1.5104°E)
Time: 22:18:53
(UTC+00:00)

Meteor 1-19 Rocket - Pass Details

Date: 19 May 2025
Orbit: 805 x 927 km, 81.2° (Epoch: 18 June)

Event Time Altitude Azimuth Distance (km) Brightness Sun altitude
Exits shadow 22:25:43 34° 179° (S) 1,469 4.9 -20.1°
Maximum altitude 22:28:28 78° 99° (E) 952 4.3 -20.2°
Drops below altitude 10° 22:34:30 10° 14° (NNE) 2,631 7.6 -20.6°
Sets 22:36:59 0° 13° (NNE) 3,570 8.4 -20.7°
